FW8685 Weather Reports


Display with metric or nautical units.
time (UTC)temp
F
wind
direction
speed
MPH
gust
MPH
rain 1hr
in
rain 24hr
in
rain mn
in
humidity
%
barometer
mb
20260505001538 77 184 7.0 15.0 0.00 0.00 0.00 54 999.1
20260505001023 77 158 9.0 14.0 0.00 0.00 0.00 54 999.0
20260505000526 77 182 8.0 14.0 0.00 0.00 0.00 53 999.2
20260505000048 78 141 9.0 17.0 0.00 0.00 0.00 53 999.1
20260504235520 78 165 9.0 17.0 0.00 0.00 0.00 53 999.0
20260504235024 78 173 9.0 17.0 0.00 0.00 0.00 52 999.2
20260504234545 78 193 8.0 23.0 0.00 0.00 0.00 51 999.2
20260504234025 79 175 11.0 23.0 0.00 0.00 0.00 51 999.1
20260504233521 79 149 12.0 20.0 0.00 0.00 0.00 50 999.1
20260504233056 79 215 12.0 20.0 0.00 0.00 0.00 50 999.3
20260504232522 79 198 11.0 18.0 0.00 0.00 0.00 48 999.3
20260504232020 80 210 8.0 18.0 0.00 0.00 0.00 48 999.2
20260504231540 80 171 11.0 20.0 0.00 0.00 0.00 47 999.2
20260504231023 80 214 11.0 21.0 0.00 0.00 0.00 47 999.1
20260504230520 80 188 12.0 21.0 0.00 0.00 0.00 48 999.3
20260504230039 80 181 11.0 21.0 0.00 0.00 0.00 48 999.1
20260504225521 81 199 9.0 22.0 0.00 0.00 0.00 47 999.1
20260504225021 81 188 12.0 24.0 0.00 0.00 0.00 46 999.2
20260504224540 81 158 14.0 24.0 0.00 0.00 0.00 47 999.2
20260504224023 81 185 9.0 23.0 0.00 0.00 0.00 47 999.2
20260504223521 81 161 13.0 23.0 0.00 0.00 0.00 46 999.2
20260504223054 81 198 11.0 20.0 0.00 0.00 0.00 47 999.2
20260504222522 82 181 12.0 24.0 0.00 0.00 0.00 46 999.2
20260504222020 82 188 12.0 24.0 0.00 0.00 0.00 46 999.2
20260504221540 82 165 11.0 18.0 0.00 0.00 0.00 46 999.1
20260504221021 82 181 12.0 23.0 0.00 0.00 0.00 47 999.3
20260504220521 82 190 11.0 24.0 0.00 0.00 0.00 45 999.2
20260504220040 82 209 12.0 24.0 0.00 0.00 0.00 45 999.3
20260504215520 82 158 12.0 23.0 0.00 0.00 0.00 44 999.3
20260504215021 82 203 13.0 21.0 0.00 0.00 0.00 44 999.4
20260504214537 82 202 11.0 24.0 0.00 0.00 0.00 44 999.5
20260504214021 82 194 13.0 24.0 0.00 0.00 0.00 45 999.5
20260504213521 83 181 11.0 22.0 0.00 0.00 0.00 43 999.6
20260504213050 83 217 10.0 22.0 0.00 0.00 0.00 42 999.5
20260504212520 84 188 13.0 21.0 0.00 0.00 0.00 41 999.4
20260504212023 85 167 9.0 23.0 0.00 0.00 0.00 43 999.5
20260504211537 84 164 12.0 23.0 0.00 0.00 0.00 43 999.6
20260504211022 84 219 13.0 22.0 0.00 0.00 0.00 42 999.8
20260504210520 84 169 10.0 22.0 0.00 0.00 0.00 40 999.7
20260504210040 85 182 14.0 22.0 0.00 0.00 0.00 41 999.8
20260504205521 85 173 13.0 24.0 0.00 0.00 0.00 42 999.8
20260504205023 85 194 15.0 24.0 0.00 0.00 0.00 41 999.9
20260504204543 85 200 10.0 20.0 0.00 0.00 0.00 40 999.9
20260504204025 85 173 11.0 19.0 0.00 0.00 0.00 41 999.9
20260504203521 85 204 11.0 24.0 0.00 0.00 0.00 40 1000.0
20260504203051 85 175 11.0 24.0 0.00 0.00 0.00 41 1000.0
20260504202521 85 173 14.0 24.0 0.00 0.00 0.00 41 1000.2
20260504202020 85 159 13.0 24.0 0.00 0.00 0.00 43 1000.2
20260504201539 85 194 14.0 23.0 0.00 0.00 0.00 41 1000.3
20260504201023 85 201 9.0 23.0 0.00 0.00 0.00 40 1000.3
20260504200520 85 181 11.0 23.0 0.00 0.00 0.00 41 1000.3
20260504200038 85 186 9.0 21.0 0.00 0.00 0.00 41 1000.4
20260504195520 86 224 7.0 20.0 0.00 0.00 0.00 41 1000.5
20260504195020 85 198 10.0 20.0 0.00 0.00 0.00 42 1000.5
20260504194537 85 147 7.0 11.0 0.00 0.00 0.00 40 1000.6
20260504194021 85 215 6.0 12.0 0.00 0.00 0.00 40 1000.6
20260504193524 85 213 4.0 17.0 0.00 0.00 0.00 39 1000.7
20260504193037 84 219 7.0 17.0 0.00 0.00 0.00 42 1000.9
20260504192522 84 186 8.0 16.0 0.00 0.00 0.00 41 1000.8
20260504192021 85 213 5.0 17.0 0.00 0.00 0.00 39 1000.9
20260504191541 85 231 9.0 19.0 0.00 0.00 0.00 39 1001.0
20260504191021 85 178 10.0 19.0 0.00 0.00 0.00 43 1000.9
20260504190521 84 150 6.0 18.0 0.00 0.00 0.00 42 1001.0
20260504190037 84 158 5.0 18.0 0.00 0.00 0.00 42 1001.0
20260504185520 84 256 9.0 20.0 0.00 0.00 0.00 41 1001.1
20260504185021 84 216 10.0 20.0 0.00 0.00 0.00 41 1001.2
20260504184540 84 254 10.0 18.0 0.00 0.00 0.00 42 1001.1
20260504184021 84 246 7.0 17.0 0.00 0.00 0.00 42 1001.1
20260504183522 83 169 7.0 17.0 0.00 0.00 0.00 44 1001.1
20260504183037 84 202 9.0 16.0 0.00 0.00 0.00 41 1001.2
20260504182521 83 185 5.0 14.0 0.00 0.00 0.00 42 1001.3
20260504182021 83 235 6.0 14.0 0.00 0.00 0.00 43 1001.4
20260504181544 83 225 6.0 16.0 0.00 0.00 0.00 43 1001.4
20260504181021 83 190 6.0 16.0 0.00 0.00 0.00 42 1001.4
20260504180522 83 152 6.0 13.0 0.00 0.00 0.00 44 1001.6
20260504180037 82 188 8.0 19.0 0.00 0.00 0.00 43 1001.6
20260504175522 82 248 5.0 19.0 0.00 0.00 0.00 41 1001.6
20260504175021 82 198 9.0 16.0 0.00 0.00 0.00 42 1001.6
20260504174536 81 242 6.0 15.0 0.00 0.00 0.00 43 1001.8
20260504174022 81 245 7.0 16.0 0.00 0.00 0.00 45 1001.7
20260504173522 81 234 8.0 19.0 0.00 0.00 0.00 44 1001.8
20260504173032 81 201 8.0 19.0 0.00 0.00 0.00 44 1001.7
20260504172520 80 205 9.0 17.0 0.00 0.00 0.00 44 1001.7
20260504172021 80 202 9.0 18.0 0.00 0.00 0.00 46 1001.7
20260504171545 80 183 8.0 18.0 0.00 0.00 0.00 44 1001.7
20260504171023 80 225 7.0 18.0 0.00 0.00 0.00 44 1001.8
20260504170523 79 245 9.0 18.0 0.00 0.00 0.00 47 1001.8
20260504151021 72 218 12.0 25.0 0.00 0.00 0.00 52 1002.3
20260504150520 72 227 11.0 25.0 0.00 0.00 0.00 50 1002.3
20260504141020 68 244 9.0 22.0 0.00 0.00 0.00 55 1002.5
20260504140521 68 204 9.0 21.0 0.00 0.00 0.00 54 1002.5
20260504130525 64 221 9.0 23.0 0.00 0.00 0.00 59 1002.5
20260504110524 63 217 10.0 18.0 0.00 0.00 0.00 56 1002.4
20260504100520 64 223 12.0 24.0 0.00 0.00 0.00 53 1002.9
20260504081538 66 205 8.0 25.0 0.00 0.00 0.00 48 1003.8
20260504081022 66 211 13.0 25.0 0.00 0.00 0.00 48 1003.8
20260504080522 66 226 12.0 24.0 0.00 0.00 0.00 48 1003.8
20260504050522 70 212 15.0 32.0 0.00 0.00 0.00 42 1005.0
20260504045521 70 194 15.0 27.0 0.00 0.00 0.00 42 1005.1
20260504045021 70 182 13.0 27.0 0.00 0.00 0.00 42 1005.2
20260504044543 70 188 16.0 29.0 0.00 0.00 0.00 41 1005.1
20260504044021 70 201 15.0 29.0 0.00 0.00 0.00 41 1005.1
20260504043521 70 205 16.0 27.0 0.00 0.00 0.00 41 1005.1
20260504043036 70 206 13.0 27.0 0.00 0.00 0.00 41 1005.1
20260504042521 71 196 14.0 25.0 0.00 0.00 0.00 40 1005.3
20260504042021 71 167 13.0 23.0 0.00 0.00 0.00 40 1005.1
20260504041537 71 196 12.0 24.0 0.00 0.00 0.00 40 1005.3
20260504041020 71 201 14.0 25.0 0.00 0.00 0.00 40 1005.3
20260504040521 70 136 16.0 25.0 0.00 0.00 0.00 40 1005.3
20260504040054 70 209 15.0 24.0 0.00 0.00 0.00 41 1005.3
20260504035522 70 224 14.0 26.0 0.00 0.00 0.00 41 1005.3
20260504035021 70 206 14.0 26.0 0.00 0.00 0.00 41 1005.4
20260504034553 69 202 13.0 22.0 0.00 0.00 0.00 42 1005.4
20260504034021 69 188 12.0 23.0 0.00 0.00 0.00 43 1005.3
20260504033521 69 192 11.0 23.0 0.00 0.00 0.00 43 1005.4
20260504033038 69 195 12.0 22.0 0.00 0.00 0.00 44 1005.4
20260504032521 69 188 10.0 24.0 0.00 0.00 0.00 44 1005.4
20260504032023 69 195 11.0 24.0 0.00 0.00 0.00 44 1005.5
20260504031537 69 174 11.0 22.0 0.00 0.00 0.00 44 1005.5
20260504031021 69 187 11.0 20.0 0.00 0.00 0.00 43 1005.6
20260504030521 69 175 11.0 19.0 0.00 0.00 0.00 43 1005.5
20260504030042 69 160 10.0 18.0 0.00 0.00 0.00 43 1005.6
20260504025521 70 182 10.0 18.0 0.00 0.00 0.00 42 1005.5
20260504025023 70 178 12.0 18.0 0.00 0.00 0.00 42 1005.7
20260504024538 70 152 11.0 18.0 0.00 0.00 0.00 41 1005.7
20260504024023 70 169 10.0 17.0 0.00 0.00 0.00 41 1005.7
20260504023521 71 192 9.0 17.0 0.00 0.00 0.00 41 1005.6
20260504023040 71 172 9.0 18.0 0.00 0.00 0.00 40 1005.6
20260504022524 71 167 9.0 18.0 0.00 0.00 0.00 40 1005.6
20260504022022 71 197 10.0 17.0 0.00 0.00 0.00 40 1005.6
20260504021538 71 176 9.0 15.0 0.00 0.00 0.00 40 1005.6
20260504021021 71 159 9.0 16.0 0.00 0.00 0.00 39 1005.5
20260504020521 72 194 8.0 17.0 0.00 0.00 0.00 39 1005.5
20260504020037 72 173 9.0 17.0 0.00 0.00 0.00 39 1005.5
20260504015522 72 182 10.0 18.0 0.00 0.00 0.00 38 1005.5
20260504015021 72 188 9.0 18.0 0.00 0.00 0.00 37 1005.5
20260504014536 73 190 9.0 15.0 0.00 0.00 0.00 37 1005.4
20260504014020 73 188 9.0 15.0 0.00 0.00 0.00 36 1005.4
20260504013522 73 165 8.0 15.0 0.00 0.00 0.00 35 1005.5
20260504013047 74 194 8.0 14.0 0.00 0.00 0.00 34 1005.4
20260504012525 74 172 7.0 14.0 0.00 0.00 0.00 33 1005.4
20260504012022 75 182 6.0 10.0 0.00 0.00 0.00 32 1005.3
20260504011541 76 175 6.0 11.0 0.00 0.00 0.00 30 1005.3
20260504011021 77 207 6.0 11.0 0.00 0.00 0.00 29 1005.4
20260504010521 77 217 7.0 11.0 0.00 0.00 0.00 29 1005.3
20260504010038 78 213 6.0 13.0 0.00 0.00 0.00 29 1005.4
20260504005524 78 215 7.0 13.0 0.00 0.00 0.00 28 1005.4
20260504005025 78 206 7.0 15.0 0.00 0.00 0.00 28 1005.5
20260504004537 79 196 7.0 15.0 0.00 0.00 0.00 27 1005.5
20260504004026 79 215 7.0 15.0 0.00 0.00 0.00 27 1005.5
20260504003525 79 214 8.0 15.0 0.00 0.00 0.00 27 1005.6
20260504003037 80 246 7.0 16.0 0.00 0.00 0.00 26 1005.7
20260504002525 80 219 8.0 16.0 0.00 0.00 0.00 26 1005.7
20260504002024 80 211 8.0 18.0 0.00 0.00 0.00 26 1005.7